{"data":{"norad_id":59352,"intl_designator":"2024-060E","name":"STARLINK-31561","alt_names":[],"object_type":"PAYLOAD","status":"ACTIVE","operator":null,"country":"US","launch_date":"2024-03-31","launch_site_code":"AFETR","launch_vehicle":null,"mission":null,"orbit_class":"UNKNOWN","rcs_meters":null,"size_class":null,"mass_kg":null,"dimensions":null,"purposes":["comms"],"wikipedia_slug":null,"has_3d_model":false,"image_url":null,"decayed_at":null,"tle_current":{"epoch":"2026-09-21T22:52:31.584576Z","epoch_age_seconds":36628,"freshness":"FRESH","line1":"1 59352U 24060E   26264.95314334 -.00001359  00000+0 -39855-4 0  9991","line2":"2 59352  43.0027 231.0485 0000894 276.8069  83.2681 15.27582779140088","mean_motion":15.27582779,"eccentricity":8.94e-5,"inclination_deg":43.0027,"raan_deg":231.0485,"arg_perigee_deg":276.8069,"mean_anomaly_deg":83.2681,"bstar":-3.9855e-5,"rev_number":14008,"period_min":94.266577222261,"perigee_km":482.42738543347,"apogee_km":483.65416401959,"semimajor_km":6861.1777747265,"source":"CELESTRAK","updated_at":"2026-09-22T09:00:48.903571Z"}}}